C2862 Weather Reports


time (UTC)temp
C
wind
direction
speed
KPH
gust
KPH
rain 1hr
cm
rain 24hr
cm
rain mn
cm
humidity
%
barometer
mb
20260510174855 23 117 3.2 9.7 0.00 0.71 0.10 71 1010.1
20260510173826 23 147 3.2 9.7 0.00 0.71 0.10 70 1010.1
20260510172804 23 126 3.2 0.0 0.00 0.71 0.10 71 1010.1
20260510170716 23 119 4.8 12.9 0.00 0.71 0.10 72 1010.3
20260510165655 22 121 3.2 14.5 0.00 0.71 0.10 74 1010.4
20260510164720 22 163 3.2 14.5 0.00 0.71 0.10 74 1010.5
20260510163705 22 202 1.6 16.1 0.00 0.71 0.10 76 1010.6
20260510162652 21 129 3.2 16.1 0.00 0.71 0.10 76 1010.7
20260510161628 21 160 1.6 14.5 0.00 0.71 0.10 76 1010.8
20260510160643 21 0 3.2 12.9 0.00 0.71 0.10 77 1010.8
20260510154515 20 0 0.0 0.0 0.00 0.71 0.10 85 1010.7
20260510153449 19 0 1.6 14.5 0.00 0.69 0.08 88 1011.1
20260510152455 18 0 1.6 9.7 0.00 0.69 0.08 90 1011.0
20260510150344 16 136 1.6 8.0 0.00 0.69 0.08 98 1011.1
20260510144127 15 146 0.0 0.0 0.00 0.69 0.08 100 1011.1
20260510143057 15 171 0.0 6.4 0.00 0.69 0.08 100 1011.2
20260510140917 15 132 0.0 1.6 0.00 0.69 0.08 100 1011.2
20260510134706 13 0 0.0 1.6 0.00 0.69 0.08 100 1011.0
20260510133632 13 0 0.0 1.6 0.00 0.69 0.08 100 1011.2
20260510132630 13 0 0.0 3.2 0.00 0.69 0.08 100 1011.0
20260510131607 13 0 0.0 4.8 0.00 0.69 0.08 100 1010.9
20260510125457 12 0 0.0 1.6 0.00 0.69 0.08 100 1010.8
20260510124507 12 0 0.0 0.0 0.00 0.69 0.08 100 1010.6
20260510123433 12 0 0.0 0.0 0.00 0.69 0.08 100 1010.6
20260510122416 12 0 0.0 0.0 0.00 0.69 0.08 100 1010.6
20260510121424 12 0 0.0 0.0 0.00 0.66 0.05 100 1010.5
20260510120430 12 0 0.0 0.0 0.00 0.66 0.05 100 1010.4
20260510115414 12 0 0.0 0.0 0.00 0.66 0.05 99 1010.2
20260510113256 12 42 0.0 0.0 0.00 0.66 0.05 99 1010.2
20260510112225 11 19 0.0 1.6 0.00 0.66 0.05 99 1010.1
20260510111214 11 19 0.0 0.0 0.00 0.66 0.05 99 1009.8
20260510110211 11 19 0.0 1.6 0.00 0.66 0.05 99 1009.8
20260510105232 11 17 0.0 0.0 0.00 0.66 0.05 99 1009.6
20260510104206 11 333 0.0 0.0 0.00 0.66 0.05 99 1009.5
20260510103229 11 333 0.0 0.0 0.00 0.66 0.05 99 1009.6
20260510101132 11 333 0.0 0.0 0.00 0.66 0.05 99 1009.6
20260510095029 11 294 0.0 0.0 0.00 0.66 0.05 99 1009.8
20260510094005 11 294 0.0 0.0 0.00 0.66 0.05 99 1009.6
20260510093002 11 294 0.0 0.0 0.00 0.66 0.05 99 1009.7
20260510091931 11 294 0.0 0.0 0.00 0.66 0.05 99 1009.7
20260510090858 11 294 0.0 0.0 0.00 0.66 0.05 98 1009.9
20260510085833 11 294 0.0 0.0 0.00 0.66 0.05 99 1010.1
20260510084845 11 294 0.0 0.0 0.00 0.66 0.05 99 1010.1
20260510083902 11 294 0.0 0.0 0.00 0.66 0.05 99 1010.0
20260510081800 11 292 1.6 8.0 0.00 0.66 0.05 99 1010.1
20260510080727 11 242 0.0 6.4 0.00 0.66 0.05 99 1010.0
20260510075715 11 345 0.0 3.2 0.00 0.66 0.05 99 1009.8
20260510074645 11 355 0.0 0.0 0.00 0.64 0.03 98 1009.1
20260510073630 11 355 0.0 0.0 0.00 0.64 0.03 98 1009.1
20260510072635 11 355 0.0 0.0 0.00 0.64 0.03 98 1009.1
20260510070539 11 355 0.0 0.0 0.00 0.64 0.03 98 1009.1
20260510065528 11 355 0.0 0.0 0.00 0.64 0.03 98 1009.3
20260510064542 11 355 0.0 0.0 0.00 0.64 0.03 98 1009.3
20260510063552 11 355 0.0 0.0 0.00 0.64 0.03 98 1009.3
20260510062544 11 355 0.0 0.0 0.00 0.64 0.03 98 1009.2
20260510061518 11 355 0.0 0.0 0.00 0.64 0.03 98 1009.1
20260510060524 11 355 0.0 0.0 0.00 0.61 0.00 98 1009.0
20260510055539 11 355 0.0 0.0 0.00 0.61 0.00 98 1009.0
20260510054510 11 355 0.0 0.0 0.00 0.61 0.00 98 1008.9
20260510053510 11 355 0.0 0.0 0.00 0.61 0.00 98 1008.9
20260510052515 11 355 0.0 0.0 0.00 0.61 0.00 98 1009.0
20260510051539 11 355 0.0 0.0 0.00 0.61 0.00 98 1009.0
20260510050510 11 355 0.0 0.0 0.00 0.61 0.00 97 1009.1
20260510045519 11 355 0.0 0.0 0.00 0.61 0.00 98 1009.1
20260510044539 11 355 0.0 0.0 0.00 0.61 0.00 98 1009.2
20260510043601 11 355 0.0 0.0 0.00 0.61 0.00 98 1009.1
20260510041511 11 355 0.0 0.0 0.00 0.61 0.00 98 1009.2
20260510040447 11 355 0.0 0.0 0.00 0.61 0.00 97 1009.2
20260510035458 11 355 0.0 0.0 0.00 0.58 0.58 97 1009.1
20260510034519 11 355 0.0 0.0 0.00 0.58 0.58 97 1009.0
20260510033530 11 355 0.0 0.0 0.00 0.58 0.58 97 1008.9
20260510032457 11 355 0.0 0.0 0.00 0.58 0.58 97 1008.9
20260510031505 11 355 0.0 0.0 0.00 0.58 0.58 97 1008.8
20260510030527 11 355 0.0 0.0 0.00 0.58 0.58 97 1008.8
20260510025457 11 355 0.0 0.0 0.00 0.53 0.58 97 1008.8
20260510024424 11 355 0.0 0.0 0.00 0.53 0.53 97 1008.9
20260510022325 11 355 0.0 0.0 0.00 0.53 0.53 96 1008.9
20260510021342 11 355 0.0 0.0 0.00 0.53 0.53 96 1008.9
20260510020325 11 355 0.0 0.0 0.00 0.53 0.53 96 1008.9
20260510012958 12 355 0.0 0.0 0.00 0.53 0.53 96 1008.9
20260510010901 12 355 0.0 0.0 0.00 0.53 0.53 96 1008.5
20260510005902 12 355 0.0 0.0 0.00 0.48 0.53 96 1008.4
20260510002643 12 355 0.0 0.0 0.00 0.48 0.51 96 1008.3
20260510001631 12 355 0.0 0.0 0.00 0.48 0.51 96 1008.3
20260510000638 12 355 0.0 0.0 0.00 0.48 0.48 96 1008.2
20260509235636 13 355 0.0 0.0 0.00 0.48 0.48 96 1008.1
20260509234642 13 355 0.0 0.0 0.00 0.46 0.46 96 1008.0
20260509233653 13 355 0.0 0.0 0.00 0.46 0.46 97 1007.8
20260509232636 13 355 0.0 0.0 0.00 0.46 0.46 96 1007.9
20260509231604 13 256 0.0 0.0 0.00 0.41 0.46 97 1007.7
20260509230604 13 257 0.0 0.0 0.00 0.41 0.43 97 1008.0
20260509225622 13 0 0.0 0.0 0.00 0.41 0.41 97 1008.3
20260509223449 13 0 0.0 0.0 0.00 0.41 0.41 96 1008.2
20260509222449 13 256 0.0 0.0 0.00 0.36 0.38 96 1008.2
20260509221417 13 0 0.0 0.0 0.00 0.36 0.38 96 1008.2
20260509220424 13 168 0.0 0.0 0.00 0.33 0.33 95 1008.5
20260509215444 13 165 0.0 0.0 0.00 0.33 0.33 95 1008.6
20260509214455 13 164 0.0 0.0 0.00 0.33 0.33 95 1008.6
20260509212259 13 164 0.0 0.0 0.00 0.33 0.33 95 1008.6
20260509211314 13 164 0.0 0.0 0.00 0.30 0.30 95 1008.6
20260509210329 13 164 0.0 1.6 0.00 0.30 0.30 94 1008.4
20260509205330 13 165 0.0 0.0 0.00 0.30 0.30 94 1008.6
20260509202105 13 165 0.0 0.0 0.00 0.25 0.25 93 1008.8
20260509201032 13 165 0.0 1.6 0.00 0.25 0.25 93 1009.0
20260509200008 13 209 1.6 9.7 0.00 0.23 0.25 93 1008.8
20260509192724 15 159 0.0 3.2 0.00 0.23 0.23 93 1008.7
20260509191655 15 156 0.0 0.0 0.00 0.23 0.23 93 1008.6
20260509190711 14 0 0.0 1.6 0.13 0.20 0.20 92 1008.8
20260509185642 15 0 0.0 3.2 0.15 0.20 0.20 92 1008.8
20260509184646 15 223 0.0 0.0 0.10 0.15 0.15 91 1008.8
20260509183646 15 232 1.6 14.5 0.20 0.15 0.15 90 1008.8
20260509182640 15 267 1.6 12.9 0.15 0.10 0.13 89 1009.0
20260509181622 16 192 1.6 19.3 0.38 0.10 0.10 87 1009.0
20260509180558 16 116 3.2 19.3 0.25 0.05 0.05 83 1009.5